軌道要素
Epoch 2014 May 23.0 TT = JDT 2456800.5
T 2014 May 14.71577 TT MPCW
q 2.0485992 (2000.0) P Q
n 0.07985016 Peri. 73.40494 +0.16375156 -0.98533090
a 5.3409542 Node 7.66816 +0.71065726 +0.08404378
e 0.6164357 Incl. 21.10454 +0.68421612 +0.14852493
P 12.3
From 71 observations 2002 Jan. 6-2015 Feb. 18, mean residual 0".5.
|